• In Hungary
  • List of Countries
  • For 7 days
  • Water Temperature
  • Satellite Maps
  • Weather Map
  • News
  • Weather Widgets
  • user-avatar
    Login

    Hourly Weather Pretki

    Today, 18 October, Thursday

    Time Temperature Precipitation Wind Pressure Humidity
    00:00 +12°C° 0 mm 3 mps 763 mmHg 62%
    01:00 +11°C° 0 mm 3 mps 763 mmHg 63%
    02:00 +11°C° 0 mm 3 mps 763 mmHg 64%
    03:00 +12°C° 0 mm 2 mps 762 mmHg 65%
    04:00 +12°C° 0 mm 2 mps 762 mmHg 65%
    05:00 +12°C° 0 mm 2 mps 762 mmHg 66%
    06:00 +12°C° 0 mm 2 mps 762 mmHg 66%
    07:00 +12°C° 0 mm 2 mps 762 mmHg 67%
    08:00 +14°C° 0 mm 2 mps 762 mmHg 62%
    09:00 +15°C° 0 mm 2 mps 762 mmHg 57%
    10:00 +17°C° 0 mm 2 mps 762 mmHg 52%
    11:00 +18°C° 0 mm 2 mps 762 mmHg 50%
    12:00 +19°C° 0 mm 2 mps 761 mmHg 49%
    13:00 +20°C° 0 mm 2 mps 761 mmHg 47%
    14:00 +19°C° 0 mm 2 mps 761 mmHg 51%
    15:00 +18°C° 0 mm 2 mps 761 mmHg 56%
    16:00 +17°C° 0 mm 2 mps 761 mmHg 60%
    17:00 +16°C° 0 mm 2 mps 761 mmHg 64%
    18:00 +15°C° 0 mm 2 mps 761 mmHg 68%
    19:00 +14°C° 0 mm 2 mps 762 mmHg 72%
    20:00 +13°C° 0 mm 2 mps 762 mmHg 76%
    21:00 +13°C° 0 mm 2 mps 762 mmHg 81%
    22:00 +11°C° 0 mm 3 mps 762 mmHg 85%
    23:00 +11°C° 0 mm 3 mps 762 mmHg 88%

    Tomorrow, 19 October, Friday

    Time Temperature Precipitation Wind Pressure Humidity
    00:00 +11°C° 0 mm 3 mps 762 mmHg 91%
    01:00 +11°C° 0 mm 3 mps 763 mmHg 94%
    02:00 +11°C° 0 mm 3 mps 763 mmHg 95%
    03:00 +10°C° 0 mm 3 mps 763 mmHg 96%
    04:00 +10°C° 0 mm 3 mps 763 mmHg 96%
    05:00 +10°C° 0 mm 3 mps 763 mmHg 95%
    06:00 +10°C° 0 mm 3 mps 764 mmHg 93%
    07:00 +10°C° 0 mm 3 mps 764 mmHg 92%
    08:00 +11°C° 0 mm 3 mps 764 mmHg 83%
    09:00 +12°C° 0 mm 3 mps 765 mmHg 74%
    10:00 +13°C° 0 mm 3 mps 765 mmHg 66%
    11:00 +14°C° 0 mm 3 mps 765 mmHg 62%
    12:00 +14°C° 0 mm 3 mps 765 mmHg 59%
    13:00 +14°C° 0 mm 3 mps 765 mmHg 55%
    14:00 +13°C° 0 mm 3 mps 765 mmHg 60%
    15:00 +12°C° 0 mm 3 mps 765 mmHg 65%
    16:00 +12°C° 0 mm 2 mps 765 mmHg 70%
    17:00 +10°C° 0 mm 2 mps 765 mmHg 75%
    18:00 +9°C° 0 mm 2 mps 766 mmHg 81%
    19:00 +8°C° 0 mm 2 mps 766 mmHg 86%
    20:00 +9°C° 0 mm 1 mps 766 mmHg 86%
    21:00 +9°C° 0 mm 1 mps 766 mmHg 87%
    22:00 +9°C° 0 mm 1 mps 766 mmHg 88%
    23:00 +8°C° 0 mm 1 mps 766 mmHg 88%

    Day after tomorrow, 20 October, Saturday

    Time Temperature Precipitation Wind Pressure Humidity
    00:00 +7°C° 0 mm 2 mps 766 mmHg 88%
    01:00 +7°C° 0 mm 3 mps 766 mmHg 87%
    02:00 +7°C° 0 mm 3 mps 766 mmHg 88%
    03:00 +7°C° 0 mm 3 mps 766 mmHg 88%
    04:00 +7°C° 0 mm 3 mps 766 mmHg 88%
    05:00 +7°C° 0 mm 3 mps 766 mmHg 89%
    06:00 +7°C° 0 mm 3 mps 767 mmHg 89%
    07:00 +6°C° 0 mm 4 mps 767 mmHg 90%
    08:00 +8°C° 0 mm 4 mps 767 mmHg 84%
    09:00 +9°C° 0 mm 5 mps 767 mmHg 78%
    10:00 +12°C° 0 mm 5 mps 767 mmHg 72%
    11:00 +11°C° 0 mm 6 mps 767 mmHg 71%
    12:00 +11°C° 0 mm 6 mps 767 mmHg 69%
    13:00 +11°C° 0 mm 6 mps 767 mmHg 68%
    14:00 +11°C° 0 mm 6 mps 767 mmHg 69%
    15:00 +10°C° 0 mm 6 mps 767 mmHg 70%
    16:00 +10°C° 0 mm 6 mps 767 mmHg 71%
    17:00 +10°C° 0.1 mm 6 mps 767 mmHg 73%
    18:00 +10°C° 0.1 mm 7 mps 767 mmHg 75%
    19:00 +10°C° 0.1 mm 7 mps 767 mmHg 77%
    20:00 +9°C° 0.1 mm 6 mps 767 mmHg 80%
    21:00 +9°C° 0.1 mm 5 mps 767 mmHg 83%
    22:00 +9°C° 0.1 mm 5 mps 767 mmHg 86%
    23:00 +8°C° 0 mm 4 mps 767 mmHg 87%

    21 October, Sunday

    Time Temperature Precipitation Wind Pressure Humidity
    00:00 +8°C° 0 mm 4 mps 767 mmHg 88%
    01:00 +8°C° 0 mm 3 mps 767 mmHg 90%
    02:00 +8°C° 0 mm 3 mps 767 mmHg 90%
    03:00 +8°C° 0 mm 3 mps 767 mmHg 90%
    04:00 +7°C° 0 mm 3 mps 767 mmHg 89%
    05:00 +7°C° 0 mm 3 mps 768 mmHg 89%
    06:00 +7°C° 0 mm 3 mps 768 mmHg 89%
    07:00 +7°C° 0 mm 3 mps 768 mmHg 89%
    08:00 +9°C° 0 mm 3 mps 768 mmHg 83%
    09:00 +11°C° 0 mm 3 mps 768 mmHg 76%
    10:00 +12°C° 0 mm 3 mps 768 mmHg 70%
    11:00 +13°C° 0 mm 4 mps 767 mmHg 69%
    12:00 +13°C° 0 mm 4 mps 767 mmHg 69%
    13:00 +13°C° 0 mm 4 mps 767 mmHg 69%
    14:00 +13°C° 0 mm 4 mps 767 mmHg 74%
    15:00 +13°C° 0 mm 4 mps 767 mmHg 78%
    16:00 +12°C° 0 mm 4 mps 767 mmHg 83%
    17:00 +12°C° 0 mm 4 mps 766 mmHg 84%
    18:00 +12°C° 0 mm 4 mps 766 mmHg 85%
    19:00 +11°C° 0 mm 4 mps 766 mmHg 86%
    20:00 +10°C° 0 mm 5 mps 766 mmHg 85%
    21:00 +10°C° 0 mm 5 mps 765 mmHg 84%
    22:00 +10°C° 0 mm 5 mps 765 mmHg 82%
    23:00 +10°C° 0 mm 6 mps 765 mmHg 80%

    22 October, Monday

    Time Temperature Precipitation Wind Pressure Humidity
    00:00 +10°C° 0 mm 6 mps 765 mmHg 77%
    01:00 +10°C° 0 mm 6 mps 764 mmHg 75%
    02:00 +10°C° 0 mm 6 mps 764 mmHg 72%
    03:00 +10°C° 0 mm 6 mps 763 mmHg 70%
    04:00 +10°C° 0 mm 7 mps 763 mmHg 67%
    05:00 +10°C° 0 mm 7 mps 763 mmHg 65%
    06:00 +10°C° 0 mm 7 mps 762 mmHg 63%
    07:00 +10°C° 0 mm 7 mps 762 mmHg 61%
    08:00 +10°C° 0.3 mm 7 mps 762 mmHg 64%
    09:00 +10°C° 0.3 mm 7 mps 762 mmHg 68%
    10:00 +10°C° 0.3 mm 7 mps 763 mmHg 72%
    11:00 +10°C° 0.2 mm 6 mps 763 mmHg 71%
    12:00 +11°C° 0.2 mm 6 mps 763 mmHg 70%
    13:00 +11°C° 0.2 mm 6 mps 763 mmHg 69%
    14:00 +11°C° 0 mm 6 mps 762 mmHg 71%
    15:00 +10°C° 0 mm 5 mps 762 mmHg 73%
    16:00 +10°C° 0 mm 5 mps 762 mmHg 74%
    17:00 +9°C° 0.1 mm 6 mps 762 mmHg 74%
    18:00 +9°C° 0.1 mm 6 mps 762 mmHg 74%
    19:00 +9°C° 0.1 mm 6 mps 762 mmHg 73%
    20:00 +9°C° 0.1 mm 6 mps 762 mmHg 71%
    21:00 +8°C° 0.1 mm 6 mps 762 mmHg 70%
    22:00 +8°C° 0.1 mm 6 mps 761 mmHg 68%
    23:00 +6°C° 0.2 mm 7 mps 761 mmHg 71%

    23 October, Tuesday

    Time Temperature Precipitation Wind Pressure Humidity
    00:00 +6°C° 0.2 mm 7 mps 761 mmHg 73%
    01:00 +5°C° 0.2 mm 7 mps 760 mmHg 76%
    02:00 +5°C° 0.2 mm 7 mps 760 mmHg 76%
    03:00 +5°C° 0.2 mm 7 mps 759 mmHg 77%
    04:00 +5°C° 0.2 mm 7 mps 759 mmHg 77%
    05:00 +5°C° 0.1 mm 6 mps 759 mmHg 79%
    06:00 +4°C° 0.1 mm 6 mps 758 mmHg 80%
    07:00 +4°C° 0.1 mm 6 mps 758 mmHg 81%
    08:00 +5°C° 0 mm 6 mps 757 mmHg 76%
    09:00 +7°C° 0 mm 6 mps 757 mmHg 71%
    10:00 +8°C° 0 mm 5 mps 757 mmHg 66%
    11:00 +8°C° 0.2 mm 5 mps 756 mmHg 69%
    12:00 +8°C° 0.2 mm 5 mps 756 mmHg 71%
    13:00 +8°C° 0.2 mm 5 mps 755 mmHg 73%
    14:00 +7°C° 1.8 mm 5 mps 755 mmHg 77%
    15:00 +7°C° 1.8 mm 5 mps 754 mmHg 81%
    16:00 +6°C° 1.8 mm 5 mps 754 mmHg 85%
    17:00 +5°C° 1.3 mm 6 mps 754 mmHg 85%
    18:00 +5°C° 1.3 mm 6 mps 753 mmHg 86%
    19:00 +5°C° 1.3 mm 6 mps 753 mmHg 87%
    20:00 +5°C° 0.3 mm 6 mps 753 mmHg 86%
    21:00 +5°C° 0.3 mm 6 mps 753 mmHg 84%
    22:00 +5°C° 0.3 mm 6 mps 753 mmHg 83%
    23:00 +4°C° 0.1 mm 6 mps 754 mmHg 82%
    Show more